Preview of NWS' New Version of Forecast
This preview is not operational and should not be used for support decisions.

Regional Weather Roundup (RWR)

Issued by National Weather Service (NWS)

                            
000
ASUS45 KABQ 221401
RWRNM 
NEW MEXICO REGIONAL WEATHER ROUNDUP
NATIONAL WEATHER SERVICE ALBUQUERQUE NM
800 AM MDT MON JUL 22 2019

NOTE: "FAIR" MEANS FEW OR NO CLOUDS BELOW 12,000 FEET AGL WITH NO
       SIGNIFICANT WEATHER OR OBSTRUCTIONS TO VISION.

      THIS PRODUCT IS RELEASED AS TWO VERSIONS.  ONE VERSION NEAR
      THE TOP OF THE HOUR CONTAINING PRELIMINARY DATA FROM ALBUQUERQUE
      AND OTHER STATIONS.  A FINAL VERSION WITH ADDITIONAL DATA IS 
      ISSUED ABOUT 10 MINUTES AFTER THE HOUR.
 
NMZ501-503-504-510>518-221500-
NORTHWEST PLATEAU/NORTHCENTRAL MOUNTAINS
  
CITY           SKY/WX    TMP DP  RH WIND       PRES   REMARKS
FARMINGTON     FAIR      76  46  34 E9        30.28R                  
LOS ALAMOS       N/A     66  45  45 CALM      30.46S                  
SANTA FE       FAIR      71  47  42 N9        30.39S                  

$$
NMZ402-403-502-505>509-221500-
WESTCENTRAL MOUNTAINS/SOUTHWEST MOUNTAINS
  
CITY           SKY/WX    TMP DP  RH WIND       PRES   REMARKS
GALLUP         FAIR      69  44  40 E7        30.34R                  
GRANTS         FAIR      69  49  48 S18G26    30.39R                  
SILVER CITY    PTSUNNY   75  48  38 CALM      30.26R                  

$$
NMZ407-409-411-412-221500-
SOUTHERN DESERTS
  
CITY           SKY/WX    TMP DP  RH WIND       PRES   REMARKS
DEMING         FAIR      79  51  37 E8        30.19R                  
LAS CRUCES     PTSUNNY   78  55  45 W3        30.22R                  
ALAMOGORDO     FAIR      75  52  43 SW6       30.20R                  
T OR C         PTSUNNY   76  55  48 N21G29    30.25R                  

$$
NMZ519>523-221500-
CENTRAL VALLEYS/CENTRAL HIGHLANDS
  
CITY           SKY/WX    TMP DP  RH WIND       PRES   REMARKS
ALBUQUERQUE    PTSUNNY   74  50  42 E18G33    30.31R                  
DOUBLE EAGLE   PTSUNNY   72  50  46 W7        30.34R                  
CLINES CORNERS NOT AVBL                                               
BELEN          FAIR      74  49  41 W14       30.30R                  
SOCORRO        NOT AVBL                                               

$$
NMZ524>526-539-540-221500-
SOUTHCENTRAL MOUNTAINS
  
CITY           SKY/WX    TMP DP  RH WIND       PRES   REMARKS
RUIDOSO          N/A     61  54  77 SE13      30.47R                  

$$
NMZ527>531-221500-
NORTHEAST HIGHLANDS/NORTHEAST PLAINS
  
CITY           SKY/WX    TMP DP  RH WIND       PRES   REMARKS
LAS VEGAS      FAIR      63  53  70 N18       30.47S                  
RATON          PTSUNNY   65  52  62 NE6       30.47R                  
CLAYTON        CLOUDY    61  59  93 E5        30.42R                  

$$
NMZ532>537-221500-
EASTCENTRAL PLAINS
  
CITY           SKY/WX    TMP DP  RH WIND       PRES   REMARKS
SANTA ROSA     FAIR      69  67  92 NE16      30.34R                  
TUCUMCARI      PTSUNNY   67  62  84 E10       30.30S                  
CANNON AFB     LGT RAIN  67  61  81 NE25G35   30.31F                  
CLOVIS AIRPORT PTSUNNY   68  60  75 NE22G29   30.32R                  

$$
NMZ028-029-538-221500-
SOUTHEAST PLAINS
  
CITY           SKY/WX    TMP DP  RH WIND       PRES   REMARKS
ROSWELL        FAIR      74  63  68 N14       30.25R                  
ARTESIA        FAIR      73  66  78 N17G23    30.25R                  
CARLSBAD       FAIR      77  62  59 N16       30.19R                  
HOBBS          CLOUDY    77  63  61 N17G24    30.19F                  


$$